Вернуться в каталог

THORAD AGENA D DEB

АктивенSSO
NORAD 4772·DEBRIS·🇺🇸 United States

Запущен Apr 8, 1970 с Vandenberg Space Force Base

Loading…

Ближайшие Пролёты

TLE

Source: Space-Track
1 04772U 70025DS  26217.42213465  .00000418  00000-0  93849-3 0  9998
2 04772  99.7670  10.3708 0182192 171.5917 256.3614 13.27045891708702

Отслеживайте THORAD AGENA D DEB в реальном времени с AllMySat

Download on the App Store